TimeAKST,TemperatureF,Dew PointF,Humidity,Sea Level PressureIn,VisibilityMPH,Wind Direction,Wind SpeedMPH,Gust SpeedMPH,PrecipitationIn,Events,Conditions,WindDirDegrees,DateUTC
12:16 AM,33.8,15.8,48,29.47,10.0,East,11.5,-,N/A,,Overcast,90,2012-11-21 09:16:00
12:36 AM,33.8,15.8,48,29.48,10.0,East,11.5,-,N/A,,Overcast,90,2012-11-21 09:36:00
12:56 AM,33.8,15.8,48,29.49,10.0,East,10.4,-,N/A,,Overcast,80,2012-11-21 09:56:00
1:16 AM,33.8,15.8,48,29.50,10.0,East,15.0,18.4,N/A,,Overcast,100,2012-11-21 10:16:00
1:36 AM,33.8,15.8,48,29.51,10.0,East,13.8,-,N/A,,Overcast,100,2012-11-21 10:36:00
1:56 AM,33.8,15.8,48,29.50,10.0,ESE,17.3,21.9,N/A,,Overcast,110,2012-11-21 10:56:00
2:16 AM,33.8,15.8,48,29.51,10.0,East,18.4,26.5,N/A,,Overcast,90,2012-11-21 11:16:00
2:36 AM,33.8,15.8,48,29.52,10.0,ESE,15.0,20.7,N/A,,Overcast,110,2012-11-21 11:36:00
2:56 AM,33.8,15.8,48,29.53,10.0,ENE,13.8,24.2,N/A,,Overcast,70,2012-11-21 11:56:00
3:16 AM,33.8,15.8,48,29.53,10.0,ESE,12.7,17.3,N/A,,Overcast,110,2012-11-21 12:16:00
3:36 AM,33.8,15.8,48,29.54,10.0,ESE,10.4,-,N/A,,Overcast,110,2012-11-21 12:36:00
3:56 AM,33.8,14.0,44,29.54,10.0,ESE,12.7,19.6,N/A,,Overcast,110,2012-11-21 12:56:00
4:16 AM,33.8,15.8,48,29.55,10.0,ESE,16.1,-,N/A,,Overcast,110,2012-11-21 13:16:00
4:36 AM,32.0,15.8,51,29.56,10.0,ESE,12.7,-,N/A,,Overcast,110,2012-11-21 13:36:00
4:56 AM,32.0,15.8,51,29.57,10.0,East,11.5,-,N/A,,Overcast,100,2012-11-21 13:56:00
5:16 AM,32.0,15.8,51,29.58,10.0,East,12.7,-,N/A,,Overcast,80,2012-11-21 14:16:00
5:36 AM,32.0,15.8,51,29.59,10.0,East,12.7,-,N/A,,Overcast,100,2012-11-21 14:36:00
5:56 AM,32.0,17.6,55,29.60,10.0,East,10.4,-,N/A,,Overcast,90,2012-11-21 14:56:00
6:16 AM,32.0,15.8,51,29.60,10.0,East,9.2,-,N/A,,Overcast,100,2012-11-21 15:16:00
6:36 AM,32.0,14.0,48,29.61,10.0,East,9.2,-,N/A,,Overcast,100,2012-11-21 15:36:00
6:56 AM,32.0,15.8,51,29.61,10.0,East,10.4,-,N/A,,Overcast,90,2012-11-21 15:56:00
7:16 AM,32.0,15.8,51,29.62,10.0,East,12.7,18.4,N/A,,Overcast,100,2012-11-21 16:16:00
7:36 AM,30.2,15.8,55,29.63,10.0,East,11.5,-,N/A,,Overcast,90,2012-11-21 16:36:00
7:56 AM,30.2,15.8,55,29.64,10.0,East,13.8,18.4,N/A,,Overcast,100,2012-11-21 16:56:00
8:16 AM,30.2,17.6,60,29.65,10.0,East,11.5,-,N/A,,Overcast,90,2012-11-21 17:16:00
8:36 AM,30.2,17.6,60,29.66,10.0,East,12.7,-,N/A,,Overcast,90,2012-11-21 17:36:00
8:56 AM,30.2,17.6,60,29.67,10.0,East,11.5,-,N/A,,Overcast,100,2012-11-21 17:56:00
9:16 AM,30.2,17.6,60,29.68,10.0,East,12.7,-,N/A,,Overcast,90,2012-11-21 18:16:00
9:36 AM,30.2,17.6,60,29.69,10.0,East,13.8,18.4,N/A,,Overcast,100,2012-11-21 18:36:00
9:56 AM,30.2,19.4,64,29.70,10.0,East,15.0,-,N/A,,Overcast,100,2012-11-21 18:56:00
10:16 AM,30.2,19.4,64,29.71,10.0,ESE,10.4,-,N/A,,Overcast,110,2012-11-21 19:16:00
10:36 AM,30.2,19.4,64,29.72,10.0,ESE,10.4,-,N/A,,Overcast,110,2012-11-21 19:36:00
10:56 AM,30.2,19.4,64,29.73,10.0,East,12.7,-,N/A,,Overcast,100,2012-11-21 19:56:00
11:16 AM,30.2,19.4,64,29.73,10.0,East,15.0,-,N/A,,Overcast,100,2012-11-21 20:16:00
11:36 AM,30.2,19.4,64,29.74,10.0,East,13.8,18.4,N/A,,Overcast,100,2012-11-21 20:36:00
11:56 AM,30.2,19.4,64,29.75,10.0,ESE,12.7,-,N/A,,Overcast,110,2012-11-21 20:56:00
12:16 PM,30.2,19.4,64,29.75,10.0,ESE,12.7,17.3,N/A,,Overcast,110,2012-11-21 21:16:00
12:36 PM,30.2,21.2,69,29.77,10.0,East,12.7,-,N/A,,Overcast,100,2012-11-21 21:36:00
12:56 PM,28.4,21.2,74,29.78,3.0,East,11.5,-,N/A,,Overcast,100,2012-11-21 21:56:00
1:16 PM,28.4,21.2,74,29.78,3.0,East,13.8,-,N/A,,Overcast,100,2012-11-21 22:16:00
1:36 PM,28.4,23.0,80,29.79,3.0,East,11.5,-,N/A,,Overcast,100,2012-11-21 22:36:00
1:56 PM,28.4,23.0,80,29.80,1.5,ESE,12.7,17.3,N/A,,Overcast,110,2012-11-21 22:56:00
2:16 PM,28.4,21.2,74,29.81,1.5,East,12.7,-,N/A,,Overcast,100,2012-11-21 23:16:00
2:36 PM,28.4,23.0,80,29.82,1.5,East,12.7,-,N/A,,Overcast,100,2012-11-21 23:36:00
2:56 PM,28.4,23.0,80,29.83,1.5,East,11.5,-,N/A,,Overcast,100,2012-11-21 23:56:00
3:16 PM,28.4,21.2,74,29.83,1.5,East,13.8,-,N/A,,Overcast,100,2012-11-22 00:16:00
3:36 PM,28.4,23.0,80,29.85,1.5,East,12.7,-,N/A,,Overcast,100,2012-11-22 00:36:00
3:56 PM,28.4,21.2,74,29.86,3.0,East,11.5,-,N/A,,Overcast,90,2012-11-22 00:56:00
4:16 PM,28.4,23.0,80,29.86,7.0,East,13.8,-,N/A,,Overcast,100,2012-11-22 01:16:00
4:36 PM,28.4,23.0,80,29.87,7.0,East,12.7,19.6,N/A,,Overcast,90,2012-11-22 01:36:00
4:56 PM,28.4,23.0,80,29.88,10.0,East,11.5,-,N/A,,Overcast,100,2012-11-22 01:56:00
5:16 PM,28.4,23.0,80,29.89,10.0,East,11.5,-,N/A,,Overcast,90,2012-11-22 02:16:00
5:36 PM,30.2,23.0,75,29.89,10.0,East,11.5,-,N/A,,Overcast,90,2012-11-22 02:36:00
5:56 PM,28.4,21.2,74,29.90,10.0,East,10.4,-,N/A,,Overcast,90,2012-11-22 02:56:00
6:16 PM,30.2,21.2,69,29.91,10.0,East,11.5,-,N/A,,Overcast,100,2012-11-22 03:16:00
6:36 PM,30.2,23.0,75,29.91,10.0,East,11.5,-,N/A,,Overcast,100,2012-11-22 03:36:00
6:56 PM,30.2,21.2,69,29.93,10.0,East,8.1,-,N/A,,Overcast,80,2012-11-22 03:56:00
7:16 PM,30.2,21.2,69,29.93,10.0,East,10.4,-,N/A,,Overcast,90,2012-11-22 04:16:00
7:36 PM,30.2,21.2,69,29.94,10.0,East,10.4,-,N/A,,Overcast,90,2012-11-22 04:36:00
7:56 PM,30.2,21.2,69,29.94,10.0,East,11.5,16.1,N/A,,Overcast,80,2012-11-22 04:56:00
8:16 PM,30.2,21.2,69,29.94,7.0,East,13.8,19.6,N/A,,Overcast,90,2012-11-22 05:16:00
8:36 PM,30.2,21.2,69,29.95,7.0,East,11.5,-,N/A,,Overcast,80,2012-11-22 05:36:00
8:56 PM,30.2,21.2,69,29.96,7.0,East,13.8,-,N/A,,Overcast,90,2012-11-22 05:56:00
9:16 PM,30.2,21.2,69,29.96,7.0,East,11.5,17.3,N/A,,Overcast,90,2012-11-22 06:16:00
9:36 PM,30.2,21.2,69,29.96,7.0,East,13.8,-,N/A,,Overcast,100,2012-11-22 06:36:00
9:56 PM,30.2,21.2,69,29.97,7.0,ENE,8.1,-,N/A,,Overcast,60,2012-11-22 06:56:00
10:16 PM,30.2,21.2,69,29.98,7.0,ESE,9.2,-,N/A,,Overcast,110,2012-11-22 07:16:00
10:36 PM,30.2,21.2,69,29.97,7.0,East,12.7,-,N/A,,Overcast,90,2012-11-22 07:36:00
10:56 PM,30.2,21.2,69,29.98,7.0,East,11.5,-,N/A,,Overcast,90,2012-11-22 07:56:00
11:16 PM,30.2,21.2,69,29.98,10.0,East,10.4,-,N/A,,Overcast,90,2012-11-22 08:16:00
11:36 PM,30.2,21.2,69,29.98,10.0,East,10.4,-,N/A,,Overcast,80,2012-11-22 08:36:00
11:56 PM,30.2,21.2,69,29.97,10.0,East,11.5,-,N/A,,Overcast,90,2012-11-22 08:56:00